Tracking 29892 objects as of 21-Nov-2024
HD Live streaming from Space Station
objects crossing your sky now

STARLINK-30214

Track STARLINK-30214 now!
10-day predictions
STARLINK-30214 is classified as:


NORAD ID: 57411
Int'l Code: 2023-102H
Perigee: 565.4 km
Apogee: 567.0 km
Inclination: 43.0 °
Period: 95.8 minutes
Semi major axis: 6937 km
RCS: Unknown
Launch date: July 20, 2023
Source: United States (US)
Launch site: AIR FORCE WESTERN TEST RANGE (AFWTR)
Your satellite tracking list
Your tracking list is empty




NASA's NSSDC Master Catalog

Two Line Element Set (TLE):
1 57411U 23102H   24325.38750124  .00001303  00000-0  11152-3 0  9992
2 57411  43.0044 305.7105 0001132 278.9543  81.1171 15.02534804 74845
Source of the keplerian elements: AFSPC